www.pogodaiklimat.ru

Погода и климат >> Архив погоды >> Таиланд >> Лаем-Чабанг


ПОГОДА в Лаем-Чабанге

  • Прогноз погоды в Лаем-Чабанге
  • Монитор погоды в Лаем-Чабанге

АРХИВ ПОГОДЫ в Лаем-Чабанге

Время (UTC), дата Ветер
(напр.,м/с)
 
Видим.   Явления Облачность Т
(С)
Тd
(С)
f
(%)
Тe
(С)
Тes
(С)
Комфортность P
(гПа)
Po
(гПа)
Тmin
(С)
Tmax
(С)
R
(мм)
R24
(мм)
S
(см)
00 15.08 ЮЗ 3 10 км 9/3 600 м
[Sc Ac As Cs]
+27.0 +25.3 90 +39 +40 очень
душно
1008.1 998.8 +24.5 8
03 15.08 ЮЗ 8 12 км 8/3 600 м
[Sc Ac As Cs]
+30.0 +24.4 72 +42 +43 опасность
перегрева
1009.5 1000.2
06 15.08 ЮЗ 6 12 км 6/3 600 м
[Sc Cs]
+31.1 +25.3 71 +45 +50 опасность
перегрева
1008.0 998.8
09 15.08 ЮЗ 8 12 км 6/3 600 м
[Sc Cs]
+31.5 +25.1 69 +45 +46 опасность
перегрева
1005.4 996.3
12 15.08 ЮЗ 5 10 км 9/4 600 м
[Sc Ac As Cs]
+29.5 +25.4 79 +43 +43 опасность
перегрева
1005.2 996.0 +31.8
00 16.08 ЮЗ 8 10 км 8/3 600 м
[Sc Ac As Cs]
+28.1 +25.1 84 +41 +41 опасность
перегрева
1006.4 997.2 +27.7
03 16.08 ЮЗ 5 10 км 8/3 600 м
[Sc Ac As Cs]
+30.4 +24.9 72 +43 +47 опасность
перегрева
1007.7 998.4
06 16.08 ЮЗ 6 12 км 8/3 600 м
[Cu med, cong Cs]
+31.5 +25.1 69 +45 +50 опасность
перегрева
1006.8 997.6
09 16.08 ЮЗ 10 12 км 8/3 600 м
[Cu med, cong Cs]
+31.2 +24.5 68 +44 +44 опасность
перегрева
1004.4 995.2
12 16.08 ЮЗ 8 10 км 8/3 600 м
[Cu med, cong Cs]
+29.3 +24.6 76 +42 +42 опасность
перегрева
1004.4 995.2 +32.0
00 17.08 ЮЗ 4 10 км 9/3 600 м
[Sc Ac As Cs]
+28.5 +24.6 79 +40 +41 очень
душно
1007.5 998.3 +28.0
03 17.08 ЮЗ 6 10 км 9/3 600 м
[Sc Ac As Cs]
+30.8 +24.7 70 +44 +46 опасность
перегрева
1009.4 1000.2
06 17.08 ЮЗ 8 12 км 8/3 600 м
[Cu med, cong Cs]
+31.8 +25.0 67 +45 +48 опасность
перегрева
1007.9 998.7
09 17.08 ЮЗ 8 12 км 9/3 600 м
[Cu Sc Ac As Cs]
+30.0 +25.0 75 +43 +44 опасность
перегрева
1006.2 997.0
12 17.08 ЮЗ 10 10 км 9/3 600 м
[Cu med, cong Ac As Cs]
+28.5 +24.9 81 +41 +41 опасность
перегрева
1006.6 997.4 +31.5
00 18.08 штиль 0 10 км 6/1 600 м
[Cu hum Ac lent Cs]
+28.2 +23.9 78 +39 +40 очень
душно
1009.5 1000.2 +27.7
03 18.08 ЮЗ 6 10 км 8/3 600 м
[Cu hum Ac lent Cs]
+30.5 +24.0 68 +42 +45 опасность
перегрева
1011.5 1002.3
06 18.08 ЮЗ 8 12 км 8/3 600 м
[Cu med, cong Cs]
+32.0 +24.9 66 +45 +48 опасность
перегрева
1009.7 1000.5
09 18.08 ЮЗ 10 12 км 8/3 600 м
[Cu med, cong Cs]
+31.5 +24.4 66 +44 +44 опасность
перегрева
1007.6 998.5
12 18.08 ЮЗ 12 10 км 8/3 600 м
[Cu med, cong Cs]
+29.0 +24.7 78 +41 +41 опасность
перегрева
1009.4 1000.1 +32.5
00 19.08 З 4 10 км 6/1 600 м
[Cu med, cong Ac lent Cs]
+28.5 +24.2 78 +40 +40 очень
душно
1008.1 998.8 +28.0
03 19.08 З 6 10 км 6/3 600 м
[Cu med, cong Cs]
+31.0 +24.6 69 +44 +48 опасность
перегрева
1010.5 1001.3
06 19.08 ЮЗ 6 12 км 6/3 600 м
[Cu med, cong Cs]
+33.5 +25.0 61 +47 +52 опасность
перегрева
1008.3 999.1
09 19.08 ЮЗ 8 12 км 6/3 600 м
[Cu med, cong Cs]
+32.0 +23.3 60 +43 +43 опасность
перегрева
1006.2 997.1
12 19.08 ЮЗ 10 10 км 9/3 600 м
[Cu Sc Ac As Cs]
+29.5 +22.9 68 +39 +39 очень
душно
1007.8 998.5 +33.8
00 20.08 штиль 0 10 км 9/3 600 м
[Sc Ac As Cs]
+28.8 +24.5 78 +41 +41 опасность
перегрева
1006.7 997.5 +28.2
03 20.08 ЮЗ 6 10 км 9/3 600 м
[Sc Cs]
+30.5 +24.3 70 +43 +46 опасность
перегрева
1009.2 1000.0
06 20.08 ЮЗ 8 12 км 8/3 600 м
[Sc Cs]
+31.3 +24.8 68 +44 +47 опасность
перегрева
1006.6 997.4
09 20.08 ЮЗ 8 12 км 9/3 600 м
[Sc Cs]
+30.5 +24.8 72 +44 +44 опасность
перегрева
1005.0 995.8
12 20.08 ЮЗ 10 20 км {дождь} 10/4 600 м
[Sc Ac As Cs]
+26.5 +25.1 92 +38 +38 очень
душно
1006.8 997.5 +32.0 3
00 21.08 штиль 0 10 км 9/3 600 м
[Sc Ac As Cs]
+27.8 +24.8 84 +40 +40 очень
душно
1005.5 996.2 +27.2
03 21.08 ЮЗ 6 10 км 9/3 600 м
[Sc Ac As Cs]
+30.0 +25.0 75 +43 +46 опасность
перегрева
1008.6 999.4
06 21.08 ЮЗ 6 12 км 8/3 600 м
[Sc Ac As Cs]
+31.2 +25.3 71 +45 +49 опасность
перегрева
1006.0 996.9
09 21.08 ЮЗ 8 12 км 8/3 600 м
[Sc Ac As Cs]
+30.5 +24.7 71 +43 +44 опасность
перегрева
1004.7 995.5
12 21.08 ЮЗ 6 10 км 9/3 600 м
[Sc Ac As Cs]
+28.8 +24.2 76 +40 +40 очень
душно
1006.0 996.8 +31.8

 

Местоположение метеостанции Лаем-Чабанг (Таиланд): широта 15.08 долгота 100.88 высота над уровнем моря 82 м.

В архиве по умолчанию представлена погода в Лаем-Чабанге за последнюю неделю. Архивные данные за месяц целиком и за предыдущие месяцы, начиная с января 2011 года, Вы можете получить, выбрав интересующий диапазон дат из раскрывающегося списка и нажав кнопку "Ввод!".


*Определитесь, кто Вы:
робот инопланетянин человек

Внимание! Время в таблицах - всемирное. Для получения местного времени необходимо прибавить поправку, которая равна 7 ч.

Смотрите также архив погоды в соседних городах и на ближайших метеорологических станциях:

Погода в Буа Чум (Таиланд) (39 км)
Погода в Лопбури (Таиланд) (43 км)
Погода в Такфа Агромете (Таиланд) (51 км)
Погода в Сарабури (Таиланд) (62 км)
Погода в Аюттхая (Таиланд) (65 км)
Погода в Вичан Бури (Таиланд) (66 км)
Погода в Пакчонг Агромете (Таиланд) (69 км)
Погода в Чайнат Агромете (Таиланд) (76 км)
Погода в Утай Тани (Таиланд) (96 км)
Погода в Суфанбури (Таиланд) (105 км)

Пояснения к столбцам:

Ветер - указаны скорость ветра в м/с - средняя за 10 мин, порывы в срок и между сроками (в фигурных скобках) и направление, откуда дует ветер: С - северный, СВ - северо-восточный, В - восточный, ЮВ - юго-восточный, Ю - южный, ЮЗ - юго-западный, З - западный, СЗ - северо-западный.
Видимость - горизонтальная дальность видимости в метрах или километрах. При видимости от 1 до 10 км при отсутствии осадков обычно наблюдается дымка, при ухудшении видимости до 1 км и менее - туман. В сухую погоду видимость может ухудшаться дымом, пылью или мглою.
Явления - указаны атмосферные явления, наблюдавшиеся в срок или в последний час перед сроком; фигурными скобками обозначены явления, наблюдавшиеся между сроками (за 1-3 часа до срока); квадратными скобками обозначены град или гололедные отложения с указанием их диаметра в мм.
Облачность - указаны через наклонную черту общая и нижняя облачность в баллах и высота нижней границы облаков в метрах; квадратными скобками обозначены формы облаков: Ci - перистые, Cs - перисто-слоистые, Cc - перисто-кучевые, Ac - высококучевые, As - высокослоистые, Sc - слоисто-кучевые, Ns - слоисто-дождевые, Cu - кучевые, Cb - кучево-дождевые. Подробнее классификацию облаков см. в Атласе облаков (PDF).
T - Температура воздуха - температура, измеренная на высоте 2 м над землей.
Td - Температура точки росы - температура, при понижении до которой содержащийся в воздухе водяной пар достигнет насыщения.
f - Относительная влажность воздуха - влажноcть воздуха, измеренная на высоте 2 м над землей.
Te - Эффективная температура - температура, которую ощущает одетый по сезону человек в тени. Характеристика душности погоды. При расчете учитывается влияние влажности воздуха и скорости ветра на теплоощущения человека.
Tes - Эффективная температура на солнце - температура, которую ощущает человек, с поправкой на солнечный нагрев. Характеристика знойности погоды. Зависит от высоты солнца над горизонтом, облачности и скорости ветра. Ночью, в пасмурную погоду, а также при ветре 12 м/с и более поправка равна нулю.
P - Атмосферное давление - приведенное к уровню моря атмосферное давление.
Po - Атмосферное давление - измеренное на уровне метеостанции атмосферное давление.
Tmin - Минимальная температура - минимум температуры воздуха на высоте 2 м над землей.
Tmax - Максимальная температура - максимум температуры воздуха на высоте 2 м над землей.
R - Количество осадков - Количество выпавших осадков за период времени, мм. При наведении курсора мыши на число - период времени, за который выпало указанное количество осадков.
R24 - Количество осадков - Количество выпавших осадков за 24 часа, мм.
S - Снежный покров - Высота снежного покрова, см. При наведении курсора мыши на число - состояние снежного покрова и степень покрытия местности в баллах.